Location: Cucq
(50.4773°N, 1.6202°E)
Time: 06:28:16
(UTC+00:00)

FALCON 9 DEB - Pass Details

Date: 07 August 2020
Orbit: 427 x 441 km, 53.0° (Epoch: 23 September)

Event Time Altitude Azimuth Distance (km) Brightness Sun altitude
Exits shadow 00:15:25 51° 31° (NNE) 566 3.9 -23.1°
Drops below altitude 10° 00:18:23 10° 74° (ENE) 1,559 6.2 -23.1°
Sets 00:20:31 0° 78° (ENE) 2,427 7.1 -23.0°
